This is the latest recevied weather packets stored in our database for station/object OE5RBO. If no packets are shown the sender has not sent any weather packets the latest 10 day(s).
| Time | Temp. | Humidity | Pressure | Rain* | Wind** | Luminosity | Snow |
|---|---|---|---|---|---|---|---|
| 1787580974 | 26.67° C | 55% | 1018.2 hPa | 0 mm | - | - | - |
| 1787580374 | 26.11° C | 55% | 1018.2 hPa | 0 mm | - | - | - |
| 1787579773 | 26.11° C | 54% | 1018.4 hPa | 0 mm | - | - | - |
| 1787579173 | 26.67° C | 53% | 1018.5 hPa | 0 mm | - | - | - |
| 1787578573 | 26.67° C | 53% | 1018.4 hPa | 0 mm | - | - | - |
| 1787577973 | 26.67° C | 53% | 1018.5 hPa | 0 mm | - | - | - |
| 1787576772 | 26.11° C | 55% | 1018.9 hPa | 0 mm | - | - | - |
| 1787576171 | 26.11° C | 54% | 1019 hPa | 0 mm | - | - | - |
| 1787575571 | 25.56° C | 58% | 1019 hPa | 0 mm | - | - | - |
| 1787574970 | 25.56° C | 57% | 1019 hPa | 0 mm | - | - | - |
| 1787574370 | 25° C | 55% | 1019.1 hPa | 0 mm | - | - | - |
| 1787573770 | 24.44° C | 57% | 1019.1 hPa | 0 mm | - | - | - |
| 1787573169 | 25° C | 57% | 1019.2 hPa | 0 mm | - | - | - |
| 1787572569 | 25° C | 57% | 1019.2 hPa | 0 mm | - | - | - |
| 1787571969 | 25° C | 56% | 1019.2 hPa | 0 mm | - | - | - |
| 1787571368 | 25° C | 54% | 1019.3 hPa | 0 mm | - | - | - |
| 1787570768 | 25° C | 57% | 1019.4 hPa | 0 mm | - | - | - |
| 1787570168 | 25° C | 58% | 1019.3 hPa | 0 mm | - | - | - |
| 1787569567 | 24.44° C | 56% | 1019.4 hPa | 0 mm | - | - | - |
| 1787568366 | 25° C | 60% | 1019.7 hPa | 0 mm | - | - | - |
| 1787567766 | 25° C | 58% | 1019.7 hPa | 0 mm | - | - | - |
| 1787567166 | 25° C | 59% | 1019.7 hPa | 0 mm | - | - | - |
| 1787566565 | 26.11° C | 54% | 1019.9 hPa | 0 mm | - | - | - |
| 1787565965 | 25.56° C | 53% | 1019.8 hPa | 0 mm | - | - | - |
| 1787565365 | 24.44° C | 58% | 1019.9 hPa | 0 mm | - | - | - |
* Rain since midnight (hover to see other rain measurements)
** Current wind speed in m/s (hover to see current wind gust speed)